Location: Naisjärv
(66.5000°N, 22.3333°E)
Time: 09:47:18
(UTC+00:00)

Daily predictions for brighter satellites

Satellite Brightness Start Highest point End
(mag) Time Altitude Azimuth Time Altitude Azimuth Time Altitude Azimuth
Cosmos 1125 Rocket 3.5 15:22:25 10° NW 15:27:39 73° NE 15:32:51 10° SE
Cosmos 841 Rocket 4.3 15:26:37 10° S 15:31:12 33° ESE 15:35:48 10° NE
Cosmos 2056 Rocket 4.4 15:26:45 10° WNW 15:31:32 37° N 15:36:23 10° ENE
Cosmos 1400 Rocket 4.2 15:28:00 10° NNW 15:31:39 42° W 15:35:15 10° S
Cosmos 1455 Rocket 3.9 15:27:55 10° N 15:31:42 28° NE 15:35:28 10° ESE
Cosmos 1603 4.0 15:26:14 10° W 15:31:46 56° N 15:37:19 10° ENE
Cosmos 1992 Rocket 4.4 15:27:56 10° WSW 15:33:06 58° NW 15:38:17 10° NE
CSL-04 Rocket 4.4 15:28:39 10° E 15:33:14 31° NE 15:37:50 10° NNW
ERS-1 Rocket 4.2 15:30:32 10° E 15:34:22 22° NNE 15:38:11 10° NNW
Cosmos 1441 Rocket 4.0 15:34:23 10° SSE 15:37:08 24° E 15:39:52 10° NE
IRS-1C 4.3 15:31:57 10° SSE 15:37:18 86° WSW 15:42:40 10° NNW
Cosmos 1300 Rocket 4.5 15:34:51 10° NNW 15:39:11 55° W 15:43:28 10° S
Cosmos 540 Rocket 3.5 15:34:57 10° SSW 15:40:00 70° SE 15:45:06 10° NE
SAR-Lupe-4 3.5 15:36:30 10° SE 15:40:03 66° ENE 15:43:38 10° NNW
Okean 2 Rocket 3.3 15:36:04 10° NNW 15:40:23 47° ENE 15:44:39 10° SE
Landsat 7 4.2 15:36:31 10° S 15:41:10 69° WSW 15:45:50 10° NNW
COSMOS 2428 3.2 15:35:29 10° NW 15:41:12 68° SW 15:46:53 10° SE
Cosmos 2123 Rocket 4.5 15:36:14 10° SSE 15:42:00 39° E 15:47:45 10° NNE
JB-3 4.4 15:39:32 10° NNE 15:43:26 81° WNW 15:47:20 10° SSW
Okean 1 Rocket 3.4 15:39:45 10° NNW 15:44:03 46° ENE 15:48:18 10° SE
Cosmos 1980 3.8 15:39:30 10° NW 15:45:14 89° SSW 15:50:55 10° SE
Aureole 3 Rocket 3.6 15:41:11 10° NNW 15:46:30 43° NE 15:50:24 10° SE
NOAA 6 4.1 15:43:24 10° SE 15:48:27 56° NE 15:53:31 10° NNW
YAOGAN 1 2.5 15:44:31 10° SE 15:48:44 62° ENE 15:52:59 10° NNW
Sich 1 Rocket 3.9 15:45:22 10° NNW 15:49:47 48° ENE 15:54:13 10° SE
Spot 4 Rocket 4.0 15:45:40 10° SE 15:50:44 65° ENE 15:55:49 10° NNW
Cosmos 2237 Rocket 2.3 15:45:08 10° NW 15:50:51 88° SW 15:56:34 10° SE
Okean 1-7 3.6 15:48:26 10° SW 15:52:33 58° WNW 15:56:44 10° NNE
Cosmos 1459 Rocket 4.2 15:47:32 10° NNW 15:53:44 83° WSW 16:00:00 10° S
SL-19 R/B 4.4 15:47:42 10° SE 15:53:44 66° NE 15:59:27 10° NNW
Geosat 4.0 15:49:29 10° NE 15:54:32 79° SE 15:59:34 10° SW
ATLAS 5 CENTAUR R/B 4.1 15:52:21 10° W 15:55:16 20° SW 15:58:38 10° S
SMAP 4.1 15:52:13 10° S 15:56:48 53° WSW 16:01:23 10° NNW
ARIANE 5 R/B 2.9 15:52:23 10° SSE 15:57:28 69° WSW 16:02:32 10° NNW
Cosmos 2228 Rocket 3.6 15:54:03 10° SSW 15:58:23 62° WNW 16:02:46 10° NNE
Terra 3.0 15:54:51 10° E 15:58:31 23° NE 16:02:11 10° NNW
Cosmos 1703 Rocket 3.5 15:55:23 10° SSW 15:59:43 86° ESE 16:04:06 10° NNE
Cosmos 2219 Rocket 4.1 15:55:10 10° NW 16:00:09 34° WSW 16:05:07 10° S
SKYMED 2 4.5 15:57:38 10° NNE 16:01:25 28° E 16:05:10 10° SSE
ATLAS CENTAUR R/B 0.9 15:58:59 10° WSW 16:01:53 55° S 16:04:23 13° E
Meteor 1-28 Rocket 2.9 15:58:45 10° NNE 16:02:02 56° ESE 16:05:18 10° S
ARIANE 6 FM1 Upper Stage 3.4 16:00:19 10° WSW 16:04:08 44° S 16:07:54 10° ESE
Cosmos 2016 Rocket 4.0 15:58:21 10° NNW 16:04:35 87° ENE 16:10:52 10° SSE
SeaSat 1 4.1 16:00:30 10° S 16:05:04 38° WSW 16:09:40 10° NW
Cosmos 2150 Rocket 4.0 16:00:33 10° NW 16:05:47 66° NE 16:10:56 10° ESE
Cosmos 2298 Rocket 4.1 16:01:04 10° NW 16:06:21 65° NE 16:11:38 10° ESE
COSMO-SKYMED 1 3.7 16:03:20 10° NE 16:06:31 21° E 16:09:40 10° SE
Cosmos 1727 Rocket 4.0 16:00:54 10° S 16:07:02 69° E 16:13:12 10° NNE
Cosmos 2228 3.7 16:03:47 10° N 16:07:32 31° NE 16:11:17 10° ESE
Cosmos 1802 Rocket 4.2 16:01:19 10° NNW 16:07:43 84° WSW 16:14:09 10° S
Cosmos 1378 Rocket 4.2 16:03:59 10° SSE 16:07:47 31° E 16:11:35 10° NNE
Resurs 01 Rocket 1.7 16:04:16 10° SE 16:08:34 54° ENE 16:12:54 10° NNW
Cosmos 2285 Rocket 4.2 16:02:42 10° NW 16:09:13 86° SW 16:15:39 10° SE
Cosmos 1833 Rocket 3.0 16:05:56 10° W 16:11:32 61° NNW 16:16:43 12° ENE
GP-B 3.1 16:07:21 10° SSE 16:11:41 61° E 16:16:01 10° N
Cosmos 2292 Rocket 3.5 16:10:08 10° SSE 16:12:50 31° E 16:15:50 10° NNE
SL-16 R/B 2.2 16:08:44 10° WNW 16:14:26 72° NNE 16:20:06 10° ESE
NOSS 3-4 (A) 4.2 16:11:44 10° W 16:17:39 55° SSW 16:24:37 10° SE
NOSS 3-4 (C) 4.2 16:11:58 10° W 16:17:55 56° SSW 16:24:56 10° SE
Cosmos 1782 3.5 16:15:18 10° N 16:18:26 27° NE 16:21:05 13° ESE
PSLV R/B 3.3 16:15:26 10° SSE 16:19:33 74° ENE 16:23:39 10° NNW
UNK 3.7 16:15:49 10° NNE 16:20:21 61° ESE 16:24:53 10° S
Cosmos 2233 Rocket 4.0 16:14:17 10° NNW 16:20:35 86° ENE 16:26:54 10° SSE
Resurs 1-3 3.7 16:18:12 10° SSE 16:22:31 82° WSW 16:26:52 10° NNW
Meteor 2-14 Rocket 4.5 16:16:21 10° SSW 16:22:32 90° ESE 16:28:45 10° NNE
Cosmos 1725 Rocket 4.3 16:19:14 10° NNW 16:25:27 75° WSW 16:31:41 10° S
Cosmos 2034 Rocket 4.4 16:19:51 10° NNW 16:25:40 41° NE 16:31:29 10° ESE
Cosmos 2242 Rocket 3.7 16:21:28 10° S 16:25:42 50° E 16:29:57 10° NNE
Cosmos 1025 Rocket 3.8 16:22:36 10° SSE 16:26:21 29° E 16:30:07 10° NNE
SPOT 1/Viking Rocket 4.1 16:23:07 10° S 16:28:12 61° WSW 16:33:20 10° NNW
SJ-7 4.1 16:24:55 10° SSE 16:28:38 89° ENE 16:32:20 10° NNW
COSMOS 2406 3.2 16:25:08 10° SW 16:30:52 80° SE 16:36:11 12° NE
Cosmos 2061 Rocket 4.1 16:28:54 10° NNW 16:35:24 89° WSW 16:41:47 10° SSE
SL-16 R/B 2.6 16:29:16 10° NNE 16:35:30 86° WNW 16:41:44 10° SSW
SPOT 5 3.2 16:30:57 10° SE 16:35:41 48° NE 16:40:39 10° NNW
Cosmos 1452 Rocket 4.5 16:30:58 10° WNW 16:35:54 37° N 16:39:53 15° ENE
Cosmos 1315 Rocket 3.5 16:33:15 10° NNW 16:36:58 54° WSW 16:40:40 10° S
SJ-6B 2.5 16:34:53 10° SE 16:38:17 58° ENE 16:41:43 10° NNW
ATLAS 2AS CENTAUR R/B 3.0 16:32:00 10° SW 16:38:41 54° SSE 16:43:50 17° E
Meteor 1-11 4.5 16:35:01 10° SSE 16:40:25 47° E 16:45:56 10° NNE
USA 186 3.6 16:42:02 13° NNE 16:42:02 13° NNE 16:42:50 10° NNE
Cosmos 1763 Rocket 3.7 16:36:26 10° WSW 16:41:29 66° NW 16:46:23 11° NE
CZ-2D R/B 3.8 16:37:32 10° S 16:41:29 67° WSW 16:45:32 10° NNW
Okean-O 3.8 16:40:04 19° ENE 16:41:53 24° NE 16:45:26 10° NNW
USA 281 3.8 16:36:50 15° ENE 16:42:05 46° N 16:48:17 10° WNW
Cosmos 1674 Rocket 3.9 16:38:02 10° SSE 16:42:11 42° E 16:46:23 10° NNE
Meteor 2-16 Rocket 4.4 16:36:37 10° S 16:42:40 73° ESE 16:48:45 10° NNE
Meteor 2-1 Rocket 4.5 16:38:13 10° NNW 16:43:57 78° WSW 16:49:47 10° SSE
Cosmos 468 Rocket 4.0 16:42:40 10° SW 16:47:48 81° NW 16:52:48 11° NE
Cosmos 2151 Rocket 4.2 16:44:47 10° NNW 16:49:14 61° W 16:53:40 10° S
Okean O Rocket 2.7 16:47:39 21° E 16:49:22 27° NE 16:53:03 10° NNW
CZ-4B R/B 3.5 16:44:54 13° ESE 16:49:24 44° NE 16:54:25 10° NNW
Radarsat Rocket 4.5 16:44:15 10° SSE 16:50:12 68° WSW 16:56:47 10° NNW
CZ-4C R/B 3.5 16:47:13 10° SSE 16:50:27 18° ESE 16:51:11 17° ESE
Cosmos 220 Rocket 4.1 16:46:33 10° SW 16:50:45 70° NW 16:54:20 14° NE
Meteor 2-21 Rocket 4.5 16:45:03 10° SSW 16:51:18 85° ESE 16:57:32 10° NNE
CZ-4B DEB 4.3 16:48:56 10° SE 16:54:16 56° NE 16:59:37 10° NNW
Lacrosse 5 rocket 3.3 16:53:58 10° SSE 16:54:36 10° SSE 16:54:54 10° SE
ADEOS 3.9 16:51:17 14° ESE 16:55:33 47° NE 17:00:33 10° NNW
CZ-4 R/B 1.5 16:53:09 18° ESE 16:55:35 44° ENE 16:59:12 10° NNW
Cosmos 1464 Rocket 4.0 16:49:38 10° NNW 16:56:01 65° ENE 17:02:21 10° SSE
RESURS DK-1 2.3 16:52:04 10° WNW 16:56:03 64° NNE 16:58:11 25° E
IRAS Rocket 4.4 16:51:52 10° SSE 16:57:32 84° WSW 17:03:13 10° NNW
Cosmos 44 3.5 16:52:59 10° WSW 16:58:07 74° S 17:01:31 23° E
USA 267 4.2 16:54:28 17° ESE 16:58:44 33° SSE 17:04:33 10° SW
Cosmos 2098 Rocket 3.9 16:56:49 10° N 16:58:04 17° NNE 16:58:04 17° NNE
Meteor 1-21 Rocket 4.3 16:54:08 10° S 17:00:04 77° ESE 17:05:59 10° NNE
Cosmos 2082 Rocket 2.4 16:54:38 10° WSW 17:00:19 71° NNW 17:04:45 17° ENE
Feng Yun 1-1 Rocket 4.5 16:54:38 10° SE 17:00:20 58° NE 17:06:10 10° NNW
Meteor 1-31 Rocket 2.5 16:58:59 14° SE 17:01:50 58° ENE 17:05:16 10° NNW
CARTOSAT-1 3.9 16:58:43 10° S 17:02:54 65° WSW 17:07:07 10° NNW
MetOp-B 4.4 16:58:49 16° ESE 17:02:57 48° NE 17:08:06 10° NNW
Cosmos 1544 Rocket 3.8 16:59:50 10° NNW 17:04:00 44° ENE 17:06:32 21° ESE
Cosmos 909 Rocket 4.0 16:57:59 10° W 17:04:25 85° S 17:08:44 22° E
SAR-Lupe-5 4.1 17:03:15 18° NNE 17:05:06 82° ESE 17:07:41 10° SSW
Cosmos 1943 3.2 17:00:19 10° WNW 17:06:02 72° NNE 17:09:49 22° ESE
Cosmos 1933 4.0 17:06:19 10° N 17:09:46 30° NE 17:10:16 29° ENE
Cosmos 1455 Rocket 3.0 17:05:35 10° NNW 17:09:56 86° WSW 17:14:14 10° SSE
CSL-04 Debris 4.1 17:04:46 10° SE 17:10:11 70° ENE 17:15:37 10° NNW
Cosmos 2297 Rocket 3.3 17:06:28 10° SSE 17:10:46 23° ESE 17:10:46 23° ESE
USA 290 3.2 17:08:00 10° S 17:10:24 29° SE 17:10:24 29° SE
Cosmos 1441 Rocket 3.2 17:07:39 10° SSW 17:10:59 65° WNW 17:14:18 10° NNE
Ariane Rocket 4.1 17:09:35 22° ENE 17:11:18 27° NE 17:15:32 10° NNW
In-Cosmos 22 Rocket 4.3 17:06:15 10° SSW 17:11:51 84° WNW 17:17:37 10° NNE
ERS-1 Rocket 3.2 17:08:58 20° ESE 17:12:14 49° NE 17:17:04 10° NNW
Cosmos 841 Rocket 3.4 17:07:25 10° SW 17:12:37 88° NW 17:17:07 14° NE
CSL-04 Rocket 3.5 17:07:46 10° SE 17:13:03 75° ENE 17:18:21 10° NNW
Cosmos 2084 Rocket 3.8 17:09:36 10° WSW 17:13:36 47° SSE 17:15:19 29° ESE
Cosmos 1814 Rocket 4.2 17:09:14 10° S 17:14:16 47° ESE 17:17:59 17° NE
Cosmos 2056 Rocket 4.0 17:09:39 10° NW 17:14:37 44° NNE 17:17:08 26° ENE
Meteor 1-27 4.3 17:09:24 10° NNW 17:15:10 83° WSW 17:20:59 10° SSE
Helios 1B rocket 4.2 17:15:25 13° NNE 17:15:25 13° NNE 17:17:02 10° N
Cosmos 1603 3.8 17:10:58 10° WNW 17:16:34 63° NNE 17:19:40 27° E
Cosmos 1437 Rocket 4.3 17:15:28 10° N 17:17:56 19° NE 17:17:56 19° NE
Okean 2 Rocket 4.2 17:14:09 10° NNW 17:18:25 47° W 17:22:38 10° S
Cosmos 540 Rocket 4.1 17:16:46 10° WSW 17:21:46 52° NNW 17:25:49 15° NE
Okean 1 Rocket 4.1 17:17:37 10° NNW 17:21:56 49° W 17:26:10 10° S
Cosmos 2221 Rocket 3.6 17:19:53 10° S 17:24:17 57° E 17:28:44 10° NNE
YAOGAN 1 4.2 17:20:56 10° SSW 17:24:52 35° W 17:28:50 10° NNW
Spot 2 Rocket 4.0 17:22:59 29° E 17:24:59 41° NE 17:29:46 10° NNW
Cosmos 2123 Rocket 4.1 17:20:43 10° SSW 17:27:04 79° WNW 17:33:24 10° NNE
Cosmos 2058 Rocket 4.4 17:24:34 10° N 17:28:07 23° NE 17:28:18 23° NE
PAYLOAD B 4.2 17:23:18 12° SE 17:28:31 72° ENE 17:34:07 10° NNW
CZ-2C R/B 4.2 17:33:09 17° NNE 17:33:09 17° NNE 17:34:15 10° N
Geosat 4.5 17:28:56 20° NE 17:32:17 57° NNW 17:37:12 10° W
IRS-1A Rocket 4.4 17:29:24 24° ESE 17:32:48 57° NE 17:38:21 10° NNW
Aureole 3 Rocket 4.1 17:28:28 10° NNW 17:33:37 51° W 17:37:24 10° S
Cosmos 2237 Rocket 3.6 17:29:19 10° NW 17:34:32 38° WSW 17:39:44 10° S
Terra 1.9 17:33:16 31° ESE 17:35:21 56° ENE 17:39:59 10° NNW
ATLAS CENTAUR R/B 0.7 17:32:38 10° W 17:35:32 53° S 17:35:40 53° S
CZ-4B R/B 4.0 17:35:49 32° E 17:37:27 42° NE 17:42:22 10° NNW
SKYMED 2 3.6 17:33:42 10° NNE 17:38:05 82° WNW 17:42:27 10° SSW
Cosmos 972 Rocket 3.8 17:34:30 10° NW 17:39:26 75° NE 17:41:47 31° SE
USA 245 4.3 17:39:32 32° NE 17:39:32 32° NE 17:42:48 10° N
CZ-4B R/B 3.7 17:40:00 30° NE 17:40:00 30° NE 17:43:04 10° NNW
Cosmos 158 Rocket 3.8 17:37:22 10° SSW 17:42:08 59° ESE 17:44:37 28° NE
COSMO-SKYMED 1 2.3 17:38:17 10° NNE 17:42:27 80° ESE 17:46:34 10° SSW
ARIANE 6 FM1 Upper Stage 3.9 17:39:05 10° W 17:42:37 31° SSW 17:44:13 22° SSE
Cosmos 1624 Rocket 4.4 17:37:54 10° NW 17:43:06 50° NNE 17:44:58 35° E
CZ-4B R/B 4.0 17:40:02 10° SSE 17:44:00 70° WSW 17:47:53 10° NNW
Cosmos 2228 3.1 17:40:44 10° NNW 17:44:53 73° WSW 17:49:04 10° S
Resurs 01 Rocket 2.8 17:40:54 10° S 17:45:06 43° W 17:49:21 10° NNW
Cosmos 1378 Rocket 3.8 17:40:54 10° SSW 17:45:11 68° WNW 17:49:30 10° NNE
Cosmos 1371 Rocket 4.3 17:42:22 10° NW 17:47:26 51° NNE 17:49:04 37° E
Iridium 4 Rocket 3.8 17:44:49 10° N 17:49:49 42° ENE 17:50:28 40° E
Cosmos 2346 Rocket 4.4 17:44:17 10° S 17:50:34 83° ESE 17:56:52 10° NNE
Cosmos 1782 2.7 17:49:55 10° NNW 17:53:32 72° WSW 17:55:09 30° S
Cosmos 2292 Rocket 4.2 17:51:36 10° SW 17:54:28 38° WNW 17:57:42 10° N
Cosmos 1833 Rocket 3.0 17:50:35 10° WNW 17:56:10 56° N 17:58:23 35° ENE
SL-16 R/B 2.7 17:52:59 10° NW 17:58:33 57° SW 18:02:26 20° SSE
Cosmos 1447 Rocket 4.4 17:52:44 10° SSW 17:58:53 85° ESE 18:05:07 10° NNE
Cosmos 1025 Rocket 3.2 17:59:09 10° SSW 18:03:29 74° WNW 18:07:53 10° NNE
Cosmos 1726 Rocket 3.9 18:03:35 10° NNW 18:07:45 48° NE 18:07:45 48° NE
USA 186 3.9 18:12:31 17° N 18:12:31 17° N 18:13:18 10° NNW
Cosmos 1420 Rocket 3.9 18:05:22 10° NW 18:10:34 74° NE 18:11:51 51° ESE
MOS 1 4.3 18:06:33 20° SSE 18:10:41 84° WSW 18:16:25 10° NNW
SPOT 3 Rocket 3.8 18:10:12 45° E 18:10:56 49° NE 18:15:55 10° NNW
Cosmos 2034 Rocket 4.0 18:05:32 10° NNW 18:11:43 80° WSW 18:17:54 10° S
PEGASUS R/B 4.4 18:12:25 50° NW 18:12:25 50° NW 18:15:04 10° NW
SPOT 5 3.5 18:08:45 10° S 18:13:36 60° WSW 18:18:44 10° NNW
COSMOS 2406 3.6 18:09:46 10° W 18:15:28 61° NNW 18:18:13 31° NE
Okean-O 2.5 18:17:23 66° E 18:17:38 68° ENE 18:22:01 10° NNW
SL-16 R/B 3.8 18:13:00 10° NNE 18:18:40 40° NW 18:24:21 10° WSW
Cosmos 1833 4.2 18:12:55 10° WSW 18:18:45 85° NNW 18:21:38 32° NE
Cosmos 1452 Rocket 4.1 18:13:55 10° NW 18:18:59 44° NNE 18:20:07 39° NE
IRS-1C Rocket 4.3 18:18:26 48° ENE 18:19:06 51° NE 18:24:11 10° NNW
Cosmos 1674 Rocket 4.3 18:15:31 10° SW 18:19:50 53° WNW 18:24:13 10° NNE
Cosmos 1816 Rocket 4.4 18:14:19 10° S 18:20:24 63° E 18:26:35 10° NNE
Cosmos 1634 Rocket 3.9 18:15:40 10° NNW 18:22:03 83° ENE 18:25:26 30° SSE
Okean O Rocket 1.4 18:24:53 75° ESE 18:25:07 79° ENE 18:29:31 10° NNW
ARIANE 5 R/B 4.5 18:25:26 19° NNE 18:25:26 19° NNE 18:28:22 10° NNW
USA 281 3.5 18:23:41 39° E 18:25:58 57° NNE 18:32:22 10° NW
Cosmos 1606 Rocket 3.4 18:23:17 10° NNW 18:27:24 71° NE 18:27:24 71° NE
Cosmos 1867 3.6 18:22:20 10° SW 18:27:39 54° SSE 18:27:56 53° SE
ATLAS 2AS CENTAUR R/B 2.6 18:22:20 10° WSW 18:29:11 71° S 18:31:15 47° ESE
CZ-4 R/B 2.3 18:28:09 27° SSW 18:29:44 43° W 18:33:20 10° NNW
CZ-4B R/B 3.3 18:26:45 26° S 18:29:52 70° WSW 18:35:11 10° NNW
Lacrosse 5 rocket 3.6 18:27:53 10° SSW 18:28:21 12° SSW 18:28:21 12° SSW
Cosmos 724 4.4 18:24:37 10° SW 18:30:36 56° SSE 18:31:22 52° ESE
Cosmos 1331 Rocket 4.3 18:25:33 10° NW 18:30:40 50° NNE 18:31:23 47° NE
Cosmos 2221 4.1 18:27:14 10° N 18:29:43 23° NNE 18:29:43 23° NNE
RESURS DK-1 2.6 18:29:33 10° WNW 18:33:27 58° SW 18:33:27 58° SW
Meteor 2-6 Rocket 4.5 18:29:14 10° NNW 18:34:29 45° NE 18:34:36 45° NE
ADEOS 3.9 18:32:00 25° S 18:34:59 64° WSW 18:40:12 10° NNW
Meteor 1-31 Rocket 4.4 18:32:59 16° SSW 18:35:10 29° W 18:38:15 10° NNW
CZ-4C R/B 2.7 18:32:32 10° SW 18:36:09 38° S 18:36:09 38° S
Cosmos-2242 3.9 18:34:29 10° NNW 18:37:19 35° NNE 18:37:19 35° NNE
Cosmos 44 3.4 18:34:00 10° W 18:39:12 73° SSW 18:39:49 65° SE
Cosmos 1544 Rocket 4.3 18:37:38 10° NNW 18:41:49 49° W 18:43:33 30° SSW
USA 267 3.8 18:41:48 37° SSE 18:42:57 40° S 18:49:03 10° WSW
MetOp-B 4.5 18:40:10 28° S 18:43:01 63° WSW 18:48:23 10° NNW
USA 290 4.4 18:41:44 10° WSW 18:43:01 22° WSW 18:43:01 22° WSW
Cosmos 2082 Rocket 2.6 18:39:25 10° WNW 18:45:01 55° N 18:46:34 42° NE
Cosmos 1933 3.7 18:41:56 10° NNW 18:45:14 58° NW 18:45:14 58° NW
Helios 1B rocket 4.2 18:49:34 19° N 18:49:34 19° N 18:50:54 10° NNW
Cosmos 2279 Rocket 3.9 18:42:46 10° NNW 18:49:02 87° ENE 18:50:53 49° SSE
Ariane Rocket 3.0 18:49:39 64° NE 18:49:39 64° NE 18:54:37 10° NNW
Cosmos 1943 3.6 18:44:29 10° NW 18:50:06 58° SW 18:51:36 44° S
ERS-1 Rocket 3.5 18:48:49 32° SSW 18:50:58 57° WSW 18:55:56 10° NNW
Cosmos 2084 Rocket 4.3 18:47:58 10° W 18:51:08 41° SW 18:51:08 41° SW
Cosmos 1437 Rocket 4.3 18:50:02 10° NNW 18:51:52 27° N 18:51:52 27° N
Cosmos 2297 Rocket 2.5 18:48:20 10° SSW 18:52:37 48° S 18:52:37 48° S
Cosmos 1607 3.9 18:48:07 10° SW 18:54:08 58° SSE 18:54:09 58° SSE
Cosmos 841 Rocket 4.4 18:49:57 10° W 18:54:55 44° NNW 18:57:06 29° NNE
Cosmos 1814 Rocket 4.2 18:50:53 10° WSW 18:56:08 69° NW 18:58:08 38° NNE
Cosmos 2056 Rocket 3.3 18:51:59 10° NW 18:57:13 85° NE 18:57:22 83° E
Cosmos 972 4.4 18:52:29 10° NW 18:57:26 72° WSW 18:57:45 69° SSW
Timation 1 Rocket 4.4 18:52:02 10° WNW 18:58:02 67° NNE 18:59:06 56° ENE
Cosmos 1603 3.6 18:55:18 10° NW 19:00:55 74° SW 19:01:32 66° S
Spot 2 Rocket 3.6 19:03:02 62° SSW 19:03:44 72° WSW 19:08:51 10° NNW
Cosmos 1302 Rocket 4.5 18:58:54 10° NW 19:04:01 48° NNE 19:04:09 48° NNE
Cosmos 909 Rocket 4.0 18:58:21 10° WNW 19:04:39 75° SSW 19:05:38 63° SE
Cosmos 2058 Rocket 3.9 19:02:21 10° NNW 19:05:27 44° N 19:05:27 44° N
Meteor 2-2 Rocket 4.2 19:01:57 10° NNW 19:08:01 82° ENE 19:08:34 74° SE
ATLAS CENTAUR R/B 3.7 19:06:28 10° W 19:06:57 13° W 19:06:57 13° W
Terra 2.7 19:11:52 37° SW 19:13:03 45° W 19:17:37 10° NNW
CZ-4B R/B 4.2 19:14:46 34° NNW 19:14:46 34° NNW 19:17:05 10° NNW
USA 245 4.4 19:16:21 44° NNW 19:16:21 44° NNW 19:18:57 10° NNW
Cosmos 1110 Rocket 4.1 19:10:20 10° NW 19:15:08 65° N 19:15:08 65° N
CZ-4B R/B 3.6 19:15:39 73° SW 19:15:53 74° WSW 19:21:10 10° NNW
COSMO-SKYMED 1 4.2 19:13:49 10° NNE 19:17:27 31° NW 19:21:06 10° WSW
Cosmos 158 Rocket 4.4 19:18:56 10° WSW 19:23:44 56° NNW 19:24:20 52° N
Meteor 1-26 Rocket 4.2 19:19:08 10° NNW 19:25:10 82° WSW 19:25:34 76° SSW
Cosmos 1624 Rocket 4.1 19:20:10 10° NW 19:25:11 74° W 19:25:11 74° W
COBE Rocket 4.2 19:22:05 10° NNE 19:26:18 60° N 19:26:18 60° N
Cosmos 1371 Rocket 4.2 19:24:38 10° NW 19:29:19 68° W 19:29:19 68° W
Iridium 4 Rocket 3.8 19:24:42 10° N 19:29:50 59° W 19:30:01 59° W
Tsikada Rocket 3.8 19:35:41 79° SSW 19:36:06 89° WNW 19:42:22 10° NNE
Cosmos 1833 Rocket 2.7 19:34:52 10° NW 19:40:03 74° NW 19:40:03 74° NW
SL-16 R/B 4.2 19:37:31 10° WNW 19:41:42 21° WSW 19:44:19 16° SW
SPOT 3 Rocket 4.0 19:50:44 57° W 19:50:44 57° W 19:55:26 10° NNW
CZ-2C R/B 4.1 19:53:49 26° NNE 19:53:49 26° NNE 19:57:46 10° NNW
Okean-O 4.1 19:54:43 33° W 19:54:43 33° W 19:58:17 10° NNW
COSMOS 2406 3.6 19:54:47 10° WNW 20:00:15 57° N 20:00:15 57° N
ARIANE 5 R/B 4.5 20:02:48 26° N 20:02:48 26° N 20:04:58 10° NNW
SL-16 R/B 4.4 19:56:10 10° NE 20:01:05 26° NNW 20:06:00 10° WNW
Cosmos 1452 Rocket 4.1 19:56:16 10° NW 20:00:21 54° NW 20:00:21 54° NW
Okean O Rocket 3.3 20:02:07 28° W 20:02:07 28° W 20:05:36 10° NNW
CZ-4 R/B 4.3 20:03:50 10° W 20:04:48 11° WNW 20:05:45 10° WNW
USA 281 3.1 20:10:33 82° W 20:10:33 82° W 20:16:59 10° NW
ATLAS 2AS CENTAUR R/B 3.0 20:13:04 10° W 20:18:40 54° WSW 20:18:40 54° WSW
CZ-4C R/B 4.0 20:19:36 10° WSW 20:21:07 21° WSW 20:21:07 21° WSW
USA 267 4.5 20:29:08 28° SW 20:29:08 28° SW 20:33:01 10° W
Ariane Rocket 4.2 20:29:43 38° WNW 20:29:43 38° WNW 20:33:36 10° NNW
Cosmos 2082 Rocket 2.9 20:24:01 10° WNW 20:28:24 52° NW 20:28:24 52° NW
Cosmos 2297 Rocket 3.9 20:32:18 10° WSW 20:34:29 24° WSW 20:34:29 24° WSW
Terra 4.4 20:50:30 13° W 20:51:47 14° WNW 20:54:14 10° NW
Cosmos 1833 Rocket 4.3 21:18:55 10° NW 21:21:43 27° WNW 21:21:43 27° WNW
CZ-2C R/B 4.2 21:35:15 32° N 21:35:15 32° N 21:38:08 10° NNW
SL-16 R/B 4.4 21:39:41 15° NE 21:43:11 25° NNE 21:48:04 10° NW
USA 281 4.5 21:57:24 32° WNW 21:57:24 32° WNW 22:01:41 10° NW
ATLAS 2AS CENTAUR R/B 4.5 22:03:49 10° WNW 22:06:06 20° W 22:06:06 20° W
Cosmos 2082 Rocket 4.2 22:08:15 10° NW 22:10:13 22° WNW 22:10:13 22° WNW
ACS3 Solar Sail 3.9 22:29:19 10° NNE 22:32:03 15° ENE 22:32:03 15° ENE
SL-16 R/B 3.7 23:24:44 36° NE 23:25:32 38° NE 23:31:09 10° NNW
CZ-2D R/B 4.3 23:44:00 10° NE 23:47:30 19° ENE 23:47:30 19° ENE
